Temperature
17 17 17 17 17 17 17 18 18 18 17 17 17 17 16 16 16 15 15 15 14 14 14 14 14 14 14 14 14 14 14 14 14 14 15 15 15 15 15 15 16 16 16
17 17 17 17 17 17 18 18 18 18 18 17 17 17 16 16 16 15 15 15 14 14 14 14 14 13 13 13 13 13 13 13 14 14 14 14 14 14 15 15 15 15 16
18 17 17 17 17 17 18 18 18 18 18 17 17 17 16 16 16 15 15 15 14 14 14 13 13 13 13 13 13 13 13 13 13 13 14 14 14 14 14 14 15 15 15
18 18 18 18 18 18 18 18 18 18 18 17 17 17 17 16 16 15 15 14 14 14 14 13 13 13 13 13 13 13 13 13 13 13 13 13 13 14 14 14 14 14 14
18 18 18 18 18 18 18 18 18 18 18 18 17 17 17 16 16 15 15 15 14 14 14 13 13 13 13 12 12 12 12 12 12 12 12 12 12 13 13 13 14 14 14
19 19 18 18 18 18 18 18 18 18 18 18 17 17 17 16 16 16 15 15 14 14 14 13 13 13 12 12 12 12 12 12 12 12 12 12 12 12 12 12 13 13 14
19 19 19 19 19 19 19 19 18 18 18 18 18 17 17 16 16 16 15 15 15 15 14 14 13 13 12 12 12 12 12 12 12 11 11 11 11 11 11 12 12 12 13
20 20 20 20 20 19 19 19 19 19 19 18 18 17 17 16 16 16 16 15 15 15 14 14 13 13 13 12 12 12 12 12 11 11 11 11 11 11 11 11 11 11 12
20 20 20 20 20 20 20 20 20 19 19 19 18 18 17 17 16 16 16 16 16 15 15 14 14 13 13 12 12 12 12 11 11 11 11 11 11 11 11 11 10 10 10
21 21 21 21 21 21 21 20 20 20 20 19 19 18 17 17 17 16 16 16 16 16 15 15 14 14 13 13 12 12 12 12 11 11 11 11 11 11 11 10 10 10 10
22 22 22 22 22 21 21 21 21 20 20 19 19 18 18 17 17 17 17 17 16 16 16 15 15 14 14 13 13 13 12 12 12 11 11 11 11 11 11 10 10 10 10
23 23 23 22 22 22 22 21 21 21 20 20 20 19 18 18 18 18 17 17 17 17 16 16 15 15 14 14 13 13 13 12 12 12 11 11 11 11 11 10 10 10 10
23 23 23 23 22 22 22 22 22 21 21 21 20 19 19 19 18 18 18 18 17 17 17 16 16 16 15 14 14 14 13 13 12 12 12 11 11 11 11 10 10 10 10
22 23 23 23 23 23 23 22 22 22 21 21 20 20 20 19 19 19 18 18 18 17 17 17 16 16 15 15 14 14 14 13 13 12 12 12 11 11 11 11 10 10 10
22 22 23 23 23 23 23 23 22 22 22 21 21 20 20 20 19 19 18 18 18 18 17 17 17 16 16 15 15 14 14 14 13 13 12 12 11 11 11 10 10 10 10
21 21 22 22 23 23 23 23 22 22 22 21 21 20 20 20 19 19 18 18 18 18 17 17 17 16 16 16 15 15 14 14 13 13 13 12 12 11 11 11 10 10 10
19 20 21 21 22 22 22 22 22 22 21 21 21 20 20 19 19 19 18 18 18 18 17 17 17 16 16 16 15 15 14 14 14 13 13 12 12 11 11 11 10 10 10
18 19 20 20 20 21 21 21 21 20 20 20 19 19 19 19 18 18 18 18 17 17 17 17 16 16 16 15 15 15 14 14 14 13 13 12 12 12 11 11 10 10 10
17 18 18 19 19 19 19 19 19 19 19 18 18 18 18 18 17 17 17 17 17 16 16 16 16 16 15 15 15 14 14 14 14 13 13 12 12 12 11 10 10 10 11
17 17 17 18 18 18 18 18 18 17 17 17 16 16 16 16 16 16 16 16 15 15 15 15 15 15 15 14 14 14 13 13 13 13 13 13 12 12 11 10 10 10 11
16 16 17 17 16 16 16 16 16 15 15 15 15 15 15 15 15 15 14 14 14 14 14 14 14 14 14 14 13 13 13 12 12 12 13 13 12 12 11 11 10 11 10
15 15 15 15 15 15 15 15 14 14 14 14 14 14 13 13 13 13 13 13 12 12 12 13 13 13 13 13 13 12 12 12 11 12 12 12 12 11 11 11 10 10 10
14 14 14 14 14 14 13 13 13 13 13 13 13 12 12 12 12 12 12 12 11 11 11 11 11 11 12 12 12 11 11 11 11 11 11 11 11 11 11 10 10 10 9
13 13 13 13 13 12 12 12 12 11 12 12 11 11 11 11 11 11 10 10 10 10 10 10 10 10 10 10 11 11 11 11 11 11 11 11 11 10 10 10 10 10 9
12 12 12 12 11 11 11 11 11 11 11 10 10 10 10 10 10 10 9 9 9 9 9 9 9 9 9 9 9 9 10 10 10 10 10 10 10 10 10 10 10 10 9
12 11 11 11 11 10 10 10 10 10 10 10 10 9 9 9 9 9 9 9 9 8 8 8 8 8 8 8 9 9 9 9 9 9 9 9 10 10 10 10 10 10 9
Wind_Speed
5 6 7 7 7 6 7 8 8 7 7 4 4 4 3 2 1 2 3 4 4 5 5 4 4 4 4 3 3 2 4 4 3 2 3 3 3 3 4 3 3 3 2
6 7 7 7 8 8 8 8 8 8 7 5 4 3 3 2 2 1 2 3 4 4 4 4 3 3 3 4 4 3 2 3 4 2 2 3 3 3 4 4 5 5 4
9 10 9 9 9 9 9 9 9 8 7 6 4 4 4 3 2 1 1 3 4 4 4 5 4 3 3 3 3 3 3 2 3 3 2 2 0 2 3 3 5 5 4
7 8 9 10 11 10 9 8 8 7 6 7 6 6 5 4 4 3 3 2 4 4 5 5 5 4 2 2 2 2 2 2 2 2 3 1 1 1 2 3 3 5 5
9 10 11 11 10 10 9 8 7 7 6 7 7 6 4 3 2 2 2 2 2 3 5 6 5 4 3 2 2 2 2 1 1 1 1 2 2 2 1 2 4 4 3
9 9 9 9 8 8 8 8 8 7 7 7 7 7 7 6 5 4 4 3 2 2 5 6 6 5 4 3 3 3 2 2 2 1 1 1 1 1 1 1 2 3 3
10 10 9 10 10 10 10 9 9 9 8 8 8 8 8 8 8 6 6 5 3 3 5 5 5 4 5 5 4 3 3 2 2 2 1 1 1 1 2 1 1 2 2
10 11 12 11 11 11 11 10 10 10 9 9 9 8 8 6 6 7 6 6 5 5 5 6 6 6 6 5 4 3 3 3 3 3 3 2 2 3 3 2 2 1 2
12 12 12 11 11 12 12 12 11 10 10 10 9 8 8 8 8 7 6 5 5 4 5 6 6 6 6 5 4 4 4 3 4 4 4 3 3 3 3 3 3 2 2
11 11 11 12 12 12 11 10 11 12 11 10 10 9 9 9 8 7 7 7 6 5 6 6 7 6 6 5 5 5 5 5 5 4 4 4 3 3 4 4 4 4 4
13 13 12 12 11 10 10 10 11 11 10 11 11 10 10 9 8 8 9 8 7 7 7 7 7 7 7 6 6 7 6 6 6 5 6 7 5 4 4 4 4 5 5
11 11 11 10 10 11 11 12 12 12 13 12 11 11 10 9 10 10 9 8 8 8 8 7 7 8 8 7 7 8 7 8 8 7 7 8 6 6 5 5 6 6 6
9 9 9 10 11 12 12 13 13 14 12 11 11 11 10 11 12 11 10 9 9 9 8 8 9 9 8 8 8 9 8 9 9 8 8 8 7 8 6 7 7 6 6
6 7 8 9 10 10 11 11 12 11 10 11 12 12 13 13 12 11 10 10 10 10 10 10 10 10 9 9 9 9 9 9 9 9 9 9 9 10 9 8 8 7 7
2 5 7 7 7 7 8 9 10 9 10 10 12 13 12 10 10 10 10 10 10 11 10 10 10 10 9 9 10 10 10 10 10 10 10 10 12 13 11 8 8 8 7
4 3 2 3 4 6 7 7 7 7 8 10 11 10 8 9 10 10 10 10 10 10 9 10 11 11 10 13 15 12 10 10 11 11 10 10 12 13 14 15 14 12 10
7 5 3 2 2 2 3 5 5 5 7 8 7 6 7 8 9 8 8 10 10 10 11 11 11 12 13 16 16 16 12 11 11 12 11 10 10 12 11 12 13 14 15
11 10 7 6 5 4 3 2 3 3 3 3 3 3 4 6 5 6 9 9 8 8 10 11 11 11 13 16 17 17 13 12 13 13 13 12 12 11 11 11 11 12 12
9 9 9 8 9 9 6 7 6 5 3 0 2 3 4 5 5 7 8 7 6 8 8 7 10 11 13 16 17 15 10 11 14 14 13 14 14 15 15 12 13 13 12
10 10 11 12 13 11 8 10 8 7 5 3 2 2 1 3 5 6 6 5 6 8 7 8 9 10 12 13 16 15 10 12 13 12 12 16 17 17 16 14 13 14 14
10 10 11 12 11 9 10 11 10 7 5 4 4 4 3 2 3 3 3 3 4 5 6 8 8 9 11 13 15 15 11 12 13 12 12 12 17 20 19 17 14 16 13
9 9 10 10 8 9 10 11 9 6 6 6 6 6 5 4 4 3 3 3 3 5 6 7 8 7 8 11 13 16 17 16 14 13 12 12 17 19 19 16 16 18 13
7 7 7 8 8 8 8 8 6 6 6 7 7 6 6 5 5 4 4 4 4 4 6 6 8 8 7 8 14 16 17 18 15 14 16 16 17 16 14 17 18 14 11
5 4 6 7 7 7 6 5 5 5 6 7 6 6 6 6 6 4 4 4 5 6 6 7 8 9 8 8 8 9 10 13 14 14 15 17 16 14 13 11 11 12 11
3 3 4 4 4 5 5 5 5 5 6 6 5 5 5 5 5 5 4 5 5 6 8 8 9 10 12 12 14 12 11 10 11 9 9 9 8 10 11 10 10 10 10
2 3 2 2 3 4 5 5 4 3 4 4 5 4 5 5 5 6 7 8 9 12 13 13 13 12 15 19 20 20 19 19 15 9 10 12 12 12 12 12 11 11 11
Wind_Direction
161 157 160 163 156 160 160 163 152 150 141 135 137 136 155 163 163 175 158 142 128 117 102 91 74 68 70 62 66 79 55 32 5 39 13 358 11 34 31 26 25 10 335
163 165 169 172 174 179 176 170 165 164 165 156 147 145 142 152 164 168 173 179 160 146 124 116 103 89 84 66 54 68 75 30 22 66 73 17 0 4 17 27 35 25 24
174 172 179 184 182 187 187 182 180 173 169 152 123 101 84 75 93 170 207 210 191 176 152 143 127 109 99 89 67 66 87 71 26 36 105 119 189 320 337 6 19 16 25
182 182 186 187 193 196 190 183 180 176 171 161 159 155 161 176 199 194 199 205 198 193 179 164 148 131 117 112 89 80 83 100 57 24 36 68 135 103 340 335 350 2 17
195 196 193 193 196 192 186 185 180 183 178 173 172 163 166 177 165 165 192 205 214 212 195 180 168 156 152 151 131 113 102 102 115 79 53 63 58 65 106 322 333 341 340
196 196 192 186 193 190 185 183 185 196 186 180 177 178 178 174 169 187 200 208 218 228 205 189 184 179 175 176 171 157 145 145 137 134 130 134 127 126 132 240 306 316 314
193 193 192 192 196 195 194 189 192 204 194 188 190 191 188 183 190 195 200 199 207 217 211 192 189 191 195 193 183 177 183 178 173 177 183 188 196 178 169 187 253 290 305
195 199 201 201 203 202 199 195 199 207 197 197 200 195 189 189 199 201 196 201 207 215 206 196 200 205 202 200 192 197 207 199 200 202 197 204 212 195 189 188 187 273 300
202 204 203 203 205 205 204 201 202 207 203 203 198 196 195 197 203 203 202 206 212 217 206 201 204 210 210 207 197 214 223 211 217 220 216 219 223 212 212 205 194 197 256
206 210 209 208 209 209 209 202 203 209 207 202 201 205 201 202 201 195 203 208 212 210 202 208 212 216 217 212 208 223 227 222 230 223 222 228 228 220 215 213 212 210 215
206 210 212 211 209 208 205 204 207 208 206 205 204 201 201 199 196 202 209 207 206 205 208 211 212 217 222 219 216 228 228 230 239 234 228 236 229 225 221 214 213 214 210
210 211 211 207 205 207 208 208 208 209 211 205 200 203 200 194 200 210 213 207 208 210 212 211 213 220 224 221 220 232 233 231 239 240 234 242 235 230 226 218 220 223 217
220 216 210 207 209 210 210 211 210 212 208 196 197 201 201 201 208 213 211 207 210 213 214 212 218 224 226 226 226 230 235 235 239 240 238 242 233 237 232 225 229 232 231
223 219 219 219 216 213 211 212 214 209 200 194 198 205 209 210 213 212 210 210 210 214 216 217 221 225 227 230 232 233 237 241 243 241 238 240 234 237 236 232 232 232 236
256 230 225 224 221 218 215 213 213 202 193 192 203 213 213 210 210 211 214 214 214 220 219 220 225 226 227 232 230 232 237 240 245 245 242 241 240 238 233 231 230 226 233
347 322 274 249 235 226 222 216 215 202 186 195 211 215 206 207 214 217 216 216 220 221 218 223 226 229 232 230 225 224 233 235 240 245 246 245 248 248 242 238 232 222 229
11 9 358 332 291 255 216 208 202 171 177 201 214 210 206 212 219 218 217 222 224 222 224 228 227 232 235 232 232 228 228 233 237 239 243 247 244 236 242 246 247 242 235
28 27 24 20 16 17 30 62 96 126 167 211 238 240 230 237 235 225 230 232 229 228 232 234 233 237 243 235 234 233 232 236 239 238 236 239 244 238 233 241 247 248 246
34 32 33 36 36 36 44 67 66 69 71 330 262 243 221 229 232 237 243 238 232 237 239 240 234 237 247 239 234 231 235 239 243 241 237 235 241 238 226 233 245 252 255
42 41 41 44 42 32 44 63 60 57 39 1 336 317 258 237 238 242 245 241 236 245 250 252 247 245 252 249 239 229 234 241 247 246 241 233 234 235 222 226 233 245 251
46 46 49 49 39 32 51 57 50 40 17 19 26 21 3 306 277 270 263 261 254 258 259 261 261 255 255 258 249 236 232 240 245 247 245 240 229 229 226 220 228 236 239
49 49 55 47 32 34 54 55 38 10 12 28 32 23 12 5 360 351 330 305 282 276 275 274 277 269 262 258 257 246 235 236 243 246 246 242 230 226 226 224 228 231 231
50 46 57 51 32 27 46 51 15 5 22 29 22 11 7 4 3 357 337 324 307 294 291 288 288 288 279 267 258 257 250 239 241 249 245 241 235 228 230 229 225 223 225
50 47 57 53 30 15 27 28 5 13 33 29 13 4 2 356 353 347 334 323 314 307 302 299 295 293 289 284 279 275 271 257 248 251 249 243 240 233 233 233 229 223 220
60 60 65 56 20 3 7 3 6 22 29 19 6 358 354 346 340 335 322 314 299 294 298 298 295 297 295 288 282 281 281 273 262 255 250 241 235 233 231 231 230 223 219
70 61 46 22 343 342 341 338 346 11 18 359 347 339 335 331 330 326 322 303 291 294 291 281 281 286 278 282 285 283 277 270 262 247 247 242 235 232 230 228 228 224 222
Height
1519 1522 1525 1529 1532 1535 1538 1540 1543 1545 1548 1550 1552 1553 1555 1555 1556 1556 1556 1556 1555 1555 1554 1553 1553 1552 1552 1552 1552 1552 1552 1553 1553 1554 1555 1555 1556 1556 1557 1557 1557 1558 1559
1517 1521 1524 1528 1531 1534 1537 1540 1542 1545 1547 1550 1552 1553 1554 1555 1556 1556 1556 1556 1556 1555 1554 1554 1553 1552 1552 1552 1552 1551 1551 1551 1551 1552 1553 1553 1555 1555 1555 1555 1556 1556 1557
1515 1518 1523 1526 1530 1533 1536 1539 1542 1545 1547 1549 1551 1552 1553 1554 1555 1555 1555 1556 1555 1555 1555 1554 1553 1553 1552 1552 1551 1551 1551 1551 1550 1551 1552 1552 1552 1553 1554 1554 1555 1555 1555
1514 1517 1521 1525 1528 1532 1535 1538 1541 1544 1546 1548 1550 1551 1552 1553 1554 1554 1555 1555 1555 1555 1554 1554 1553 1553 1552 1551 1551 1551 1550 1550 1550 1550 1551 1552 1552 1553 1553 1554 1554 1554 1554
1513 1515 1518 1523 1527 1531 1534 1537 1540 1543 1545 1547 1549 1550 1551 1552 1552 1553 1553 1553 1554 1554 1553 1553 1553 1553 1552 1551 1551 1550 1550 1550 1550 1550 1550 1550 1551 1551 1552 1552 1553 1553 1553
1511 1514 1517 1522 1526 1530 1533 1536 1539 1541 1544 1546 1547 1549 1550 1551 1551 1551 1552 1552 1552 1552 1552 1552 1552 1552 1552 1551 1550 1550 1549 1549 1549 1549 1549 1549 1549 1550 1550 1550 1550 1550 1551
1510 1514 1517 1520 1524 1527 1531 1534 1536 1539 1541 1544 1545 1547 1548 1549 1549 1550 1550 1550 1550 1550 1550 1551 1551 1551 1551 1550 1550 1549 1549 1548 1548 1548 1548 1548 1548 1548 1548 1548 1548 1548 1548
1509 1512 1515 1518 1521 1525 1528 1531 1533 1536 1539 1541 1543 1545 1546 1547 1547 1548 1548 1548 1548 1548 1549 1549 1549 1549 1549 1549 1548 1548 1548 1548 1547 1547 1547 1547 1547 1547 1546 1547 1546 1545 1545
1506 1509 1512 1516 1519 1522 1525 1528 1531 1533 1536 1538 1541 1542 1543 1544 1545 1546 1546 1546 1546 1546 1546 1546 1546 1547 1547 1547 1546 1546 1546 1546 1546 1546 1545 1545 1545 1544 1544 1544 1544 1544 1543
1503 1506 1509 1512 1516 1519 1523 1526 1528 1531 1533 1536 1538 1539 1541 1542 1543 1543 1543 1543 1544 1544 1544 1544 1544 1544 1544 1544 1544 1544 1544 1544 1544 1543 1543 1542 1542 1542 1541 1541 1541 1540 1540
1499 1503 1506 1509 1513 1516 1520 1522 1525 1527 1529 1532 1534 1536 1537 1539 1540 1540 1540 1541 1541 1541 1541 1541 1541 1541 1541 1541 1541 1541 1541 1541 1541 1540 1540 1539 1539 1538 1538 1537 1537 1537 1536
1496 1500 1503 1506 1509 1512 1515 1518 1520 1523 1525 1527 1530 1531 1533 1535 1535 1536 1537 1538 1538 1538 1538 1538 1538 1538 1538 1538 1538 1538 1537 1537 1537 1536 1536 1535 1535 1534 1534 1533 1533 1532 1532
1494 1496 1499 1502 1505 1508 1510 1513 1515 1518 1521 1523 1525 1527 1528 1530 1531 1532 1533 1534 1534 1535 1535 1535 1535 1535 1535 1535 1534 1534 1533 1533 1532 1532 1531 1531 1530 1530 1529 1529 1528 1528 1527
1490 1493 1495 1497 1500 1503 1506 1508 1510 1513 1516 1518 1520 1522 1523 1525 1527 1528 1529 1530 1530 1531 1531 1531 1531 1531 1531 1530 1530 1529 1529 1528 1527 1527 1526 1526 1525 1524 1524 1524 1523 1523 1522
1486 1488 1490 1493 1496 1498 1501 1503 1505 1508 1511 1513 1515 1516 1518 1520 1522 1523 1524 1525 1526 1526 1527 1527 1527 1527 1526 1526 1525 1525 1524 1523 1522 1521 1521 1520 1519 1519 1518 1518 1517 1517 1516
1484 1486 1487 1490 1492 1494 1496 1498 1500 1503 1505 1508 1509 1511 1513 1515 1516 1517 1519 1519 1520 1521 1521 1521 1521 1521 1521 1521 1520 1519 1518 1517 1516 1515 1515 1514 1513 1512 1512 1511 1511 1510 1509
1484 1485 1486 1487 1489 1491 1492 1494 1496 1498 1500 1502 1504 1506 1508 1509 1511 1512 1513 1513 1514 1515 1515 1515 1515 1515 1515 1515 1514 1513 1512 1511 1510 1509 1508 1507 1506 1506 1505 1504 1504 1503 1502
1485 1485 1486 1487 1488 1489 1490 1491 1493 1494 1496 1498 1500 1501 1503 1504 1506 1507 1507 1507 1508 1508 1508 1508 1508 1508 1508 1508 1507 1507 1505 1504 1502 1502 1501 1500 1499 1499 1498 1497 1496 1496 1495
1489 1488 1488 1488 1488 1488 1489 1490 1491 1492 1493 1495 1496 1496 1497 1498 1499 1500 1500 1501 1501 1501 1501 1501 1500 1499 1499 1500 1499 1499 1497 1496 1495 1494 1493 1492 1491 1491 1491 1490 1489 1488 1488
1492 1491 1491 1490 1489 1489 1490 1490 1490 1490 1491 1492 1492 1492 1493 1493 1492 1493 1493 1493 1493 1493 1493 1492 1492 1491 1491 1491 1491 1491 1488 1486 1486 1485 1484 1484 1483 1483 1483 1482 1481 1480 1480
1495 1495 1495 1493 1493 1492 1492 1490 1490 1489 1490 1489 1489 1489 1488 1488 1487 1487 1486 1486 1485 1485 1484 1484 1483 1483 1482 1482 1481 1481 1479 1477 1476 1475 1475 1475 1475 1475 1474 1474 1473 1472 1474
1498 1498 1497 1497 1496 1495 1493 1492 1491 1490 1489 1488 1487 1486 1485 1484 1483 1481 1481 1480 1479 1477 1477 1475 1474 1473 1473 1472 1471 1471 1469 1468 1466 1464 1464 1465 1466 1465 1465 1464 1464 1465 1466
1501 1501 1500 1499 1498 1496 1495 1493 1493 1491 1489 1487 1485 1484 1483 1481 1479 1478 1477 1475 1474 1472 1470 1468 1466 1464 1463 1463 1462 1461 1459 1457 1455 1454 1454 1455 1456 1455 1455 1455 1456 1456 1456
1503 1502 1501 1500 1498 1497 1496 1494 1493 1491 1489 1487 1485 1483 1481 1479 1477 1475 1474 1472 1469 1466 1464 1461 1459 1456 1454 1453 1451 1450 1448 1446 1445 1444 1443 1444 1444 1444 1444 1445 1446 1446 1446
1504 1503 1501 1500 1499 1498 1496 1494 1493 1491 1488 1486 1484 1482 1479 1477 1474 1472 1470 1468 1465 1463 1459 1456 1453 1449 1445 1444 1442 1440 1437 1436 1434 1433 1432 1431 1432 1432 1433 1434 1435 1435 1436
1503 1502 1501 1500 1499 1497 1496 1494 1492 1490 1488 1485 1483 1480 1477 1474 1471 1468 1466 1463 1461 1457 1454 1450 1446 1441 1438 1435 1432 1429 1427 1425 1424 1422 1419 1419 1420 1420 1421 1422 1423 1424 1425